Estació meteorològica de Grions - St- Feliu de Buixalleu (La Selva, Parc Natural del Montseny)

Consulta les dades en temps real de l'estació meteorològica de Grions - St- Feliu de Buixalleu





Hora UTC 05:40
Temperatura 18.7 ºC
Humitat 87.2 %
Pressió 1019.0 hPa
Pluja 0.0 mm
Velocitat vent 0.0 km/h
Direcció vent

Dades diàries 2026-09-04



Hora UTC (hivern +1h; estiu +2h)
Temperatura (ºC) Humitat (%) Pressió (hPa) Velocitat vent (km/h) Precipitació (mm)
Hora UTC Aire Humitat Pressió Vel. Dir. Vel. Max Dir. Intent. màx 5 min.
00:05 22.5 83.1 1020.6 2.7 15.3 0.0
00:10 22.6 82.7 1020.5 3.0 15.3 0.0
00:15 22.6 82.4 1020.5 3.2 15.3 0.0
00:20 22.7 82.8 1020.4 1.5 15.3 0.0
00:25 22.7 82.4 1020.4 1.4 15.3 0.0
00:30 22.9 81.8 1020.5 3.1 15.3 0.0
00:35 22.9 80.7 1020.4 2.2 15.3 0.0
00:40 22.9 80.7 1020.4 2.2 15.3 0.0
00:45 22.7 80.9 1020.3 3.2 15.3 0.0
00:50 22.4 81.0 1020.3 3.7 15.3 0.0
00:55 22.3 81.2 1020.3 4.0 15.3 0.0
01:00 22.3 81.2 1020.3 4.0 15.3 0.0
01:05 21.9 81.1 1020.1 1.8 15.3 0.0
01:10 21.7 80.7 1020.2 5.1 15.3 0.0
01:15 21.6 80.8 1020.1 4.7 15.3 0.0
01:20 21.6 80.8 1020.1 4.7 15.3 0.0
01:25 21.3 81.1 1019.9 5.9 5.5 0.0
01:30 21.3 80.5 1019.9 6.5 6.8 0.0
01:35 21.2 80.4 1019.8 5.7 6.8 0.0
01:40 21.2 80.4 1019.8 5.7 6.8 0.0
01:45 21.1 80.9 1019.8 5.8 6.8 0.0
01:50 21.1 80.9 1019.8 5.8 6.8 0.0
01:55 20.9 81.1 1019.9 3.8 6.8 0.0
02:00 20.9 81.1 1019.9 3.8 6.8 0.0
02:05 20.6 81.5 1019.7 4.3 6.8 0.0
02:10 20.6 81.6 1019.6 2.9 6.8 0.0
02:15 20.4 82.1 1019.7 3.6 6.8 0.0
02:20 20.3 82.4 1019.7 4.3 6.8 0.0
02:25 20.2 82.7 1019.7 3.5 6.8 0.0
02:30 20.2 82.9 1019.7 2.3 6.8 0.0
02:35 20.1 82.9 1019.7 0.1 6.8 0.0
02:40 20.1 82.9 1019.7 0.1 6.8 0.0
02:45 20.1 82.8 1019.5 2.0 6.8 0.0
02:50 20.1 82.8 1019.5 2.0 6.8 0.0
02:55 20.0 83.0 1019.6 0.0 6.8 0.0
03:00 19.9 83.2 1019.6 0.0 6.8 0.0
03:05 19.9 83.5 1019.5 0.0 6.8 0.0
03:10 19.9 83.5 1019.5 0.0 6.8 0.0
03:15 19.9 84.0 1019.5 1.1 6.8 0.0
03:20 19.9 84.0 1019.5 1.1 6.8 0.0
03:25 19.9 84.5 1019.4 0.0 6.8 0.0
03:30 19.9 84.5 1019.3 0.0 6.8 0.0
03:35 19.9 83.9 1019.3 0.0 6.8 0.0
03:40 19.9 83.7 1019.2 0.0 6.8 0.0
03:45 19.8 83.8 1019.2 0.0 6.8 0.0
03:50 19.8 83.8 1019.2 0.0 6.8 0.0
03:55 19.7 84.2 1019.1 0.0 6.8 0.0
04:00 19.7 84.2 1019.1 0.0 6.8 0.0
04:05 19.4 85.1 1019.0 2.6 6.8 0.0
04:10 19.3 85.4 1019.0 1.7 6.8 0.0
04:15 19.3 85.7 1019.0 1.2 6.8 0.0
04:20 19.3 85.7 1019.0 1.2 6.8 0.0
04:25 19.2 85.9 1018.9 0.0 6.8 0.0
04:30 19.2 86.0 1018.9 0.0 6.8 0.0
04:35 19.1 86.1 1018.9 0.0 6.8 0.0
04:40 19.0 86.5 1018.9 0.0 6.8 0.0
04:45 19.0 86.5 1019.0 0.3 6.8 0.0
04:50 19.0 86.4 1019.0 0.2 6.8 0.0
04:55 19.1 86.8 1019.0 0.8 6.8 0.0
05:00 19.1 86.3 1019.1 0.3 6.8 0.0
05:05 18.9 86.3 1019.0 2.1 6.8 0.0
05:10 18.9 86.6 1019.1 0.0 6.8 0.0
05:15 18.8 86.9 1019.1 0.0 6.8 0.0
05:20 18.8 86.9 1019.1 0.0 6.8 0.0
05:25 18.7 87.3 1018.9 0.0 6.8 0.0
05:30 18.7 87.0 1018.9 0.0 6.8 0.0
05:35 18.7 87.2 1019.0 0.0 6.8 0.0
05:40 18.7 87.2 1019.0 0.0 6.8 0.0
Màxima 22.9 87.3 1020.6 6.5 15.3 0.0
Mínima 18.7 80.4 1018.9
Total 0.0